Location: El Portezuelo
(28.4984°N, 16.3589°W)
Time: 11:10:33
(UTC+00:00)

Cosmos 2322 Rocket - Pass Details

Date: 20 January 2020
Orbit: 831 x 852 km, 71.0° (Epoch: 27 February)

Event Time Altitude Azimuth Distance (km) Brightness Sun altitude
Rises 07:11:29 0° 198° (SSW) 3,369 5.3 -10.5°
Reaches altitude 10° 07:13:54 10° 198° (SSW) 2,441 4.6 -10.0°
Maximum altitude 07:19:30 89° 285° (WNW) 845 2.2 -8.8°
Drops below altitude 10° 07:25:11 10° 19° (NNE) 2,467 4.6 -7.6°
Sets 07:27:39 0° 19° (NNE) 3,408 5.4 -7.1°
